Temp
82 93 100 96 81 84 81 84 89 87 87 92 92 89 87 89 83 75 94 96 96 96 95 89 79 79 79 79 79 79 78 78 78 78 78 77 77 76 77 76 76 77 77 77 77 78 78 78 79
100 98 97 91 79 76 79 88 84 89 92 92 91 89 87 83 92 92 94 95 96 96 93 93 79 79 79 79 78 78 78 78 78 78 78 77 77 76 76 76 76 77 77 77 77 78 78 78 78
96 100 90 86 82 77 78 87 89 91 92 91 89 91 88 85 89 93 96 95 96 94 96 92 80 78 79 79 79 78 78 78 78 78 78 77 77 77 76 76 76 76 77 78 78 78 77 78 78
96 96 93 80 78 82 83 88 90 90 92 93 92 85 90 93 91 95 96 96 95 97 97 85 80 77 78 78 78 78 78 78 78 78 77 77 77 76 75 75 76 76 76 77 77 78 77 77 78
98 94 82 79 81 87 88 91 91 88 90 91 91 85 86 91 94 95 94 94 93 95 95 94 78 76 77 77 77 77 76 77 76 76 76 76 76 76 76 76 75 76 76 76 76 76 77 76 77
89 93 78 77 80 84 90 92 91 90 91 92 87 87 87 95 92 94 94 93 94 91 90 90 81 77 74 73 73 74 74 74 74 74 74 74 74 74 75 75 75 75 75 76 76 76 76 76 75
85 85 80 81 82 84 86 92 89 89 90 89 93 82 89 91 94 93 93 92 91 91 91 89 88 85 77 76 74 73 72 72 72 72 72 72 73 73 73 74 74 74 74 75 75 75 75 75 76
91 88 80 82 80 80 90 89 94 90 88 95 93 82 84 91 93 93 94 94 93 94 93 89 88 89 86 85 77 75 72 72 71 70 71 71 71 71 72 72 73 74 74 75 75 75 75 75 75
96 80 77 81 82 84 91 88 94 95 91 91 92 90 91 93 93 92 92 93 94 93 91 90 89 85 84 84 83 75 75 74 73 72 71 71 74 76 76 75 75 75 73 75 74 75 75 75 75
86 79 81 89 89 85 89 91 92 89 88 87 88 91 89 91 91 90 89 89 90 89 89 89 84 82 81 84 83 82 80 78 78 75 73 73 74 74 75 73 73 72 73 73 73 73 74 75 81
87 77 86 87 90 91 89 89 92 88 84 89 86 90 89 90 89 89 91 89 87 87 88 87 82 80 80 82 82 81 78 78 71 73 70 71 73 73 72 75 77 75 73 74 75 75 78 79 81
82 87 87 88 91 90 88 91 87 88 89 93 92 93 92 88 88 88 89 88 87 86 85 84 82 80 79 80 80 81 78 74 75 73 69 71 72 68 71 72 73 73 77 74 73 74 79 79 81
83 84 88 92 92 91 92 86 87 88 93 94 93 91 90 89 88 89 88 87 85 83 83 82 81 79 78 74 75 76 73 71 77 77 77 71 71 70 73 72 72 72 73 72 73 71 77 80 81
88 89 89 90 90 90 85 86 85 89 91 90 90 89 88 88 88 87 85 83 83 82 82 82 80 79 79 74 74 71 71 71 79 80 78 73 71 70 69 69 70 71 74 78 73 77 75 80 78
90 82 86 87 88 86 89 80 82 90 91 88 86 88 89 89 90 86 85 82 82 83 82 80 80 81 78 74 76 75 73 77 77 80 77 76 73 71 70 70 69 71 67 70 71 71 76 77 76
83 83 75 86 87 87 84 73 87 92 89 86 88 89 88 88 87 87 86 82 82 81 80 80 82 80 79 77 78 77 78 76 74 77 77 77 76 74 71 70 71 73 71 73 76 74 76 71 74
79 71 74 78 88 85 82 76 87 91 89 86 87 88 87 86 85 85 85 83 82 81 80 79 79 80 77 77 78 77 75 74 72 71 66 74 75 76 73 69 70 73 72 74 74 76 74 70 75
71 73 76 75 82 83 80 79 86 89 88 87 87 87 87 85 84 85 83 84 82 81 80 78 79 79 76 78 75 76 73 71 71 70 69 72 72 75 74 73 71 73 70 70 72 73 71 73 73
79 77 75 80 85 81 78 78 83 87 88 87 87 87 86 85 87 85 83 82 81 80 79 78 77 77 76 76 76 77 71 72 72 73 71 71 74 75 73 72 73 72 70 71 72 71 71 70 70
78 75 75 80 84 80 77 76 82 85 86 87 87 87 86 85 84 83 81 80 80 79 78 78 78 76 77 75 74 75 74 74 71 74 70 71 72 75 73 74 74 75 71 71 71 71 68 69 72
76 74 74 74 80 81 76 73 78 85 87 89 89 89 89 85 82 81 80 79 80 79 78 78 77 76 76 76 76 74 75 71 69 68 71 71 73 75 74 75 74 75 73 67 71 72 71 70 69
71 81 78 75 72 66 79 62 74 81 82 85 87 88 87 85 84 82 80 79 79 80 80 79 78 77 78 77 77 72 68 67 68 68 66 67 73 72 73 74 73 73 72 71 71 72 73 73 67
76 83 79 76 71 70 71 66 73 81 78 81 85 88 87 86 84 81 81 80 81 81 80 80 79 77 78 76 76 73 67 70 69 69 66 67 69 71 73 72 74 73 71 72 72 71 71 73 73
84 79 78 76 72 60 69 68 69 76 78 81 85 87 87 86 84 83 83 82 81 82 81 80 78 77 78 78 76 75 71 69 68 69 66 65 68 69 73 73 71 72 73 72 71 72 72 73 71
81 73 61 57 58 57 73 68 71 80 83 83 83 86 86 85 84 82 80 81 80 80 80 80 79 77 78 78 77 76 75 70 68 68 70 65 66 66 69 70 71 71 71 73 72 72 72 71 71
76 72 63 50 55 63 73 62 73 83 85 86 86 85 86 83 84 82 82 81 81 80 80 81 79 78 78 78 77 77 75 72 72 70 69 66 69 67 66 70 71 72 73 72 72 70 71 71 70
75 68 78 67 69 65 68 73 79 82 83 84 84 82 81 82 82 82 83 82 82 80 79 79 79 79 79 78 77 76 76 74 72 70 69 68 70 71 70 72 72 73 73 73 72 70 70 70 69
80 81 66 69 53 52 64 66 70 74 79 82 81 80 80 82 82 83 83 81 82 81 80 80 80 79 79 79 79 78 78 76 74 73 67 66 67 69 69 70 68 70 72 72 71 70 70 69 68
75 73 73 72 69 58 56 65 79 78 81 80 83 83 82 82 83 83 84 83 83 82 82 80 80 80 79 79 78 78 78 78 77 76 74 74 71 66 66 66 69 68 70 70 69 68 69 69 66
80 75 74 65 60 68 67 67 83 82 84 84 84 85 85 84 85 85 85 83 83 82 82 80 80 81 80 80 79 78 79 78 77 76 75 74 74 71 67 66 64 66 71 71 70 67 68 68 64
MSLP
1011.56 1010.81 1009.35 1008.55 1006.94 1004.03 1001.55 1000.49 1001.68 1001.85 1002.09 1003.51 1004.29 1004.68 1004.94 1005.23 1005.54 1006.54 1008.75 1009.01 1009.46 1009.65 1010.12 1011.16 1012.19 1012.63 1012.76 1012.92 1013.08 1013.35 1013.66 1013.99 1014.15 1014.23 1014.43 1014.59 1014.67 1014.63 1014.66 1014.74 1014.74 1014.65 1014.57 1014.50 1014.43 1014.41 1014.46 1014.46 1014.36
1009.75 1009.55 1008.73 1007.11 1005.07 1001.94 1000.87 1001.13 1001.55 1002.15 1002.98 1004.13 1004.63 1004.93 1005.06 1005.44 1006.63 1007.27 1008.01 1009.13 1009.47 1009.78 1010.46 1010.68 1011.75 1012.15 1012.36 1012.62 1012.84 1013.07 1013.38 1013.63 1013.83 1013.92 1014.07 1014.21 1014.27 1014.28 1014.25 1014.33 1014.43 1014.38 1014.30 1014.38 1014.40 1014.41 1014.35 1014.32 1014.19
1010.13 1009.02 1007.55 1005.24 1003.33 1001.51 1000.83 1001.58 1001.99 1002.54 1003.63 1004.06 1004.23 1005.26 1005.55 1006.21 1007.45 1007.65 1008.71 1009.48 1009.55 1009.96 1010.08 1010.66 1011.72 1012.24 1012.40 1012.49 1012.59 1012.83 1013.00 1013.18 1013.36 1013.45 1013.53 1013.61 1013.71 1013.78 1013.94 1014.02 1014.13 1014.20 1014.11 1014.17 1014.25 1014.19 1014.16 1014.05 1014.03
1009.00 1007.86 1006.88 1004.99 1002.68 1002.22 1002.09 1002.28 1002.73 1002.81 1003.13 1004.05 1004.35 1004.78 1006.22 1007.36 1007.72 1008.17 1008.89 1009.40 1009.54 1009.49 1009.74 1010.79 1011.52 1012.04 1012.35 1012.43 1012.48 1012.72 1012.80 1012.91 1013.04 1013.11 1013.11 1013.12 1013.21 1013.35 1013.62 1013.75 1013.77 1013.87 1013.91 1013.96 1013.99 1013.98 1013.94 1013.85 1013.86
1008.33 1006.62 1004.94 1003.49 1002.21 1001.68 1002.32 1002.60 1003.07 1003.05 1002.93 1003.44 1004.38 1004.79 1005.79 1007.37 1008.18 1008.60 1009.19 1009.47 1009.67 1009.77 1010.14 1010.43 1011.56 1012.07 1012.36 1012.47 1012.42 1012.55 1012.54 1012.68 1012.80 1012.87 1012.86 1012.83 1012.84 1012.94 1013.04 1013.18 1013.42 1013.43 1013.56 1013.69 1013.78 1013.87 1013.74 1013.78 1013.79
1006.82 1005.65 1004.32 1002.50 1001.51 1002.47 1002.18 1002.82 1003.26 1003.10 1003.09 1003.27 1004.56 1004.96 1005.61 1006.96 1008.08 1008.49 1008.93 1009.31 1009.58 1009.96 1010.48 1010.75 1011.49 1012.01 1012.37 1012.50 1012.56 1012.53 1012.62 1012.75 1012.75 1012.70 1012.70 1012.72 1012.72 1012.73 1012.72 1012.71 1012.80 1012.98 1013.17 1013.32 1013.50 1013.65 1013.67 1013.64 1013.69
1006.38 1004.79 1003.44 1002.71 1001.81 1001.66 1002.15 1003.13 1003.25 1003.11 1003.23 1003.30 1004.00 1005.13 1005.64 1006.69 1007.51 1008.58 1008.88 1009.51 1009.86 1010.10 1010.19 1010.46 1010.97 1011.33 1011.75 1011.91 1012.10 1012.30 1012.57 1012.65 1012.63 1012.58 1012.56 1012.53 1012.46 1012.30 1012.25 1012.35 1012.31 1012.60 1012.79 1012.89 1013.14 1013.32 1013.44 1013.49 1013.45
1005.92 1004.85 1003.63 1002.85 1001.78 1001.65 1002.09 1002.78 1002.63 1003.17 1003.34 1004.27 1005.02 1004.93 1005.31 1006.30 1007.74 1008.47 1008.66 1008.79 1009.29 1009.27 1009.47 1010.15 1010.39 1010.58 1010.92 1011.06 1011.64 1011.87 1012.28 1012.43 1012.44 1012.37 1012.26 1012.10 1011.99 1011.96 1011.88 1011.83 1011.85 1011.97 1012.23 1012.45 1012.66 1012.96 1013.16 1013.24 1013.30
1005.67 1004.97 1003.37 1002.46 1001.97 1001.74 1002.00 1002.14 1002.19 1002.98 1003.77 1004.10 1004.71 1005.35 1006.05 1006.81 1007.55 1007.83 1007.99 1008.19 1008.32 1008.82 1009.27 1009.74 1010.27 1010.79 1010.96 1010.86 1010.85 1011.38 1011.44 1011.72 1011.80 1011.76 1011.75 1011.82 1011.41 1010.91 1010.95 1010.88 1011.00 1011.26 1011.73 1011.96 1012.35 1012.63 1012.85 1013.04 1013.04
1005.31 1004.36 1003.17 1002.65 1002.40 1002.54 1002.42 1002.14 1001.97 1002.52 1003.10 1003.69 1004.70 1005.57 1006.68 1006.98 1007.24 1007.34 1007.42 1007.60 1007.90 1008.53 1009.21 1009.71 1010.44 1011.01 1011.05 1010.60 1010.32 1010.43 1010.61 1011.06 1011.20 1011.43 1011.30 1011.30 1010.98 1010.85 1010.72 1010.84 1010.91 1011.15 1011.33 1011.73 1012.15 1012.40 1012.55 1012.77 1012.09
1004.39 1004.16 1003.64 1003.28 1003.09 1002.77 1002.62 1002.38 1002.26 1002.58 1002.74 1002.79 1003.54 1004.18 1005.74 1006.54 1006.89 1007.05 1006.97 1007.50 1008.35 1008.88 1009.18 1009.84 1010.60 1010.83 1010.97 1010.46 1010.39 1010.40 1010.31 1010.73 1011.36 1011.23 1011.37 1011.12 1010.71 1010.43 1010.48 1010.38 1010.10 1010.63 1010.97 1011.34 1011.69 1012.05 1011.99 1011.70 1011.40
1003.77 1003.81 1003.69 1003.36 1003.08 1002.68 1002.57 1002.41 1002.57 1002.70 1002.85 1003.13 1003.82 1004.25 1005.03 1005.90 1006.37 1006.80 1007.09 1007.60 1008.19 1008.89 1009.42 1010.03 1010.35 1010.69 1010.76 1010.62 1010.41 1009.82 1010.48 1010.95 1010.58 1010.73 1010.95 1010.64 1010.38 1010.42 1010.30 1010.02 1009.69 1009.71 1009.81 1010.55 1011.16 1011.08 1010.86 1011.02 1010.81
1003.30 1003.58 1003.39 1002.78 1002.57 1002.56 1002.51 1002.68 1002.61 1002.63 1002.64 1003.25 1003.82 1004.16 1004.64 1005.36 1005.99 1006.74 1007.27 1008.03 1008.65 1009.02 1009.56 1010.00 1010.36 1010.52 1010.62 1010.99 1010.71 1010.35 1010.68 1010.53 1009.72 1009.73 1009.65 1010.14 1010.18 1010.19 1009.90 1009.73 1009.69 1009.54 1009.49 1010.20 1010.87 1011.01 1010.60 1010.56 1010.48
1002.84 1002.53 1002.49 1002.26 1002.07 1002.17 1002.60 1002.44 1002.74 1002.51 1002.78 1003.10 1003.59 1003.93 1004.48 1005.05 1005.77 1006.65 1007.68 1008.20 1008.75 1009.28 1009.50 1009.91 1010.13 1010.28 1010.27 1010.63 1010.55 1010.52 1010.36 1010.38 1009.26 1008.91 1009.30 1009.86 1009.97 1010.13 1010.06 1009.84 1009.65 1009.54 1009.35 1009.47 1010.11 1010.05 1010.19 1010.10 1010.86
1002.31 1002.32 1002.18 1002.07 1001.88 1002.04 1002.30 1002.47 1001.97 1002.20 1002.09 1002.56 1003.27 1003.74 1004.04 1004.57 1005.44 1006.46 1007.43 1008.30 1008.81 1009.10 1009.53 1009.81 1009.80 1009.82 1009.88 1010.06 1009.91 1010.05 1009.58 1009.38 1009.19 1008.59 1008.89 1009.05 1009.35 1009.66 1009.81 1009.65 1009.48 1009.56 1009.69 1009.58 1009.88 1010.31 1010.14 1010.68 1011.31
1002.21 1002.06 1001.45 1000.80 1001.09 1001.72 1002.60 1001.62 1000.91 1001.40 1001.78 1002.17 1002.46 1002.88 1003.48 1004.22 1005.37 1006.31 1007.24 1008.32 1008.82 1009.17 1009.38 1009.70 1009.61 1009.61 1009.62 1009.67 1009.45 1009.55 1009.12 1009.30 1009.37 1008.88 1008.86 1008.67 1008.81 1009.04 1009.40 1009.43 1009.33 1009.25 1009.53 1009.46 1009.42 1009.81 1010.05 1011.02 1011.21
1001.69 1001.11 1000.73 1000.39 1000.28 1001.21 1001.72 1001.34 1000.67 1001.03 1001.14 1001.27 1001.84 1002.12 1002.87 1004.02 1005.34 1006.30 1007.27 1008.10 1008.71 1009.05 1009.34 1009.51 1009.64 1009.42 1009.80 1009.37 1009.22 1009.17 1009.25 1009.23 1009.22 1009.24 1009.35 1008.86 1008.80 1008.58 1008.92 1008.97 1009.04 1009.12 1009.53 1009.60 1009.34 1009.55 1010.23 1011.10 1011.04
1000.47 1000.09 1000.11 999.96 1000.07 1000.81 1000.93 1000.55 1000.24 1000.27 1000.57 1000.42 1000.89 1001.52 1002.11 1003.34 1004.68 1006.10 1007.19 1007.86 1008.48 1008.92 1009.26 1009.45 1009.47 1009.44 1009.74 1009.14 1009.24 1009.06 1009.15 1009.16 1009.16 1009.16 1009.18 1008.83 1008.76 1008.49 1008.55 1008.62 1008.68 1009.06 1009.53 1009.82 1009.81 1010.00 1010.50 1010.88 1010.94
1000.02 999.45 999.07 999.12 999.62 1000.02 1000.32 1000.38 1000.02 999.81 999.85 999.62 999.91 1000.54 1001.42 1002.71 1004.19 1005.70 1006.96 1007.68 1008.34 1008.82 1009.02 1009.18 1009.32 1009.46 1009.45 1008.80 1008.75 1008.47 1008.84 1008.77 1008.70 1008.95 1008.84 1008.68 1008.39 1008.12 1008.39 1008.54 1008.65 1008.99 1009.32 1009.59 1009.85 1010.22 1010.55 1011.02 1011.45
999.81 999.42 999.23 999.46 999.60 1000.24 1000.44 1000.24 999.73 999.37 999.00 998.88 999.12 999.79 1000.82 1002.32 1003.79 1005.19 1006.57 1007.46 1008.05 1008.41 1008.77 1008.99 1009.15 1009.36 1009.21 1009.34 1009.18 1008.99 1008.86 1008.94 1008.95 1008.68 1008.65 1008.15 1008.11 1007.96 1008.29 1008.29 1008.39 1008.70 1009.21 1009.51 1009.85 1010.20 1010.73 1011.25 1011.73
999.21 999.19 999.27 999.45 999.49 1000.01 1000.41 999.49 998.86 998.04 998.42 998.42 998.72 999.61 1000.15 1001.70 1003.25 1004.79 1006.13 1007.10 1007.73 1008.15 1008.55 1008.76 1009.08 1009.20 1009.28 1009.27 1009.03 1009.22 1008.98 1009.13 1009.04 1008.94 1008.62 1008.40 1008.12 1007.97 1008.19 1008.27 1008.52 1008.66 1009.02 1009.46 1009.83 1010.14 1010.38 1010.93 1011.96
998.26 999.00 999.50 999.70 999.94 999.75 999.72 998.65 998.41 997.66 997.63 997.70 997.83 998.56 999.78 1001.22 1002.83 1004.30 1005.62 1006.68 1007.34 1007.74 1008.34 1008.68 1008.93 1009.02 1009.02 1009.14 1008.54 1009.00 1009.11 1008.95 1009.07 1009.02 1009.14 1008.88 1008.38 1008.37 1008.38 1008.18 1008.42 1008.67 1009.23 1009.43 1009.76 1010.14 1010.36 1010.69 1011.64
997.64 998.63 999.00 999.71 1000.24 1000.17 999.69 998.91 997.61 997.15 996.98 997.26 997.45 997.76 999.32 1000.69 1002.31 1003.71 1005.08 1006.17 1006.90 1007.53 1008.14 1008.53 1008.72 1008.90 1009.05 1009.13 1009.05 1008.84 1009.12 1009.15 1009.16 1009.04 1009.23 1009.05 1008.88 1008.70 1008.50 1008.48 1008.33 1008.71 1009.07 1009.51 1009.89 1010.33 1010.56 1010.83 1011.22
997.90 998.61 999.18 999.56 1000.00 999.59 999.19 998.58 997.05 996.25 996.35 997.05 997.36 997.97 999.06 1000.49 1002.05 1003.47 1004.78 1005.80 1006.55 1007.35 1007.87 1008.35 1008.54 1008.83 1008.90 1008.83 1009.08 1008.96 1009.16 1009.21 1009.17 1009.13 1009.23 1009.32 1009.14 1008.91 1008.58 1008.59 1008.73 1008.83 1009.05 1009.42 1009.90 1010.44 1010.86 1010.95 1011.81
997.38 998.09 998.69 999.37 999.29 998.49 997.97 997.63 996.67 996.62 996.69 997.20 997.70 998.11 999.23 1000.57 1001.89 1003.25 1004.40 1005.37 1006.29 1007.01 1007.63 1008.09 1008.31 1008.69 1008.79 1008.78 1008.99 1008.99 1008.69 1009.10 1009.34 1009.33 1009.41 1009.61 1009.39 1009.33 1009.15 1009.07 1009.11 1009.20 1009.37 1009.69 1010.21 1010.66 1011.07 1011.64 1012.07
996.41 997.65 997.73 998.02 997.54 996.61 996.87 996.92 996.35 996.45 996.95 997.62 998.01 998.76 999.33 1000.70 1001.86 1003.10 1004.13 1005.05 1006.00 1006.77 1007.40 1007.61 1008.14 1008.53 1008.68 1008.76 1008.99 1009.07 1009.04 1009.18 1009.27 1009.54 1009.62 1009.75 1009.63 1009.74 1009.69 1009.63 1009.67 1009.66 1009.70 1010.07 1010.60 1011.06 1011.60 1012.06 1012.50
995.60 996.71 997.62 997.76 997.19 996.69 996.25 995.92 996.18 996.49 996.96 997.14 997.86 998.96 999.79 1000.78 1001.90 1002.99 1003.94 1004.92 1005.70 1006.53 1007.23 1007.63 1007.95 1008.34 1008.57 1008.81 1009.07 1009.18 1009.20 1009.31 1009.57 1009.84 1009.90 1010.09 1009.78 1009.74 1009.98 1009.95 1010.08 1010.17 1010.30 1010.52 1010.94 1011.46 1011.99 1012.48 1013.04
994.71 996.31 997.10 997.30 997.15 996.62 995.80 995.32 995.08 996.06 996.18 996.74 997.73 998.90 999.95 1000.86 1001.89 1002.86 1003.76 1004.79 1005.51 1006.31 1007.10 1007.59 1008.00 1008.26 1008.54 1008.72 1008.91 1009.09 1009.19 1009.41 1009.64 1009.78 1009.92 1010.21 1010.36 1010.48 1010.55 1010.61 1010.74 1010.82 1010.79 1010.95 1011.37 1011.87 1012.48 1013.00 1013.63
994.28 994.76 995.81 996.53 996.57 996.07 995.53 994.68 994.48 995.29 995.91 996.61 997.03 998.46 999.78 1000.62 1001.49 1002.51 1003.43 1004.57 1005.29 1006.09 1006.69 1007.42 1007.78 1008.09 1008.48 1008.69 1009.02 1009.15 1009.17 1009.39 1009.49 1009.47 1009.81 1009.81 1010.13 1010.89 1011.15 1011.33 1011.22 1011.35 1011.53 1011.61 1011.87 1012.44 1012.81 1013.28 1014.06
993.62 994.18 995.00 995.66 996.33 995.96 995.14 994.62 994.78 995.65 995.92 996.44 996.75 997.77 999.34 1000.29 1001.17 1002.06 1002.94 1004.14 1004.85 1005.70 1006.23 1007.08 1007.47 1007.75 1008.23 1008.59 1008.91 1009.24 1009.29 1009.48 1009.52 1009.60 1009.85 1010.23 1010.28 1010.61 1011.28 1011.56 1011.62 1011.77 1011.82 1012.05 1012.19 1012.81 1013.22 1013.64 1014.27
Wind_Speed
11 12 10 7 9 9 14 3 7 10 4 6 4 7 13 10 8 6 6 5 4 4 4 13 14 13 13 13 13 13 12 12 11 11 12 12 11 11 12 11 11 10 10 10 10 11 10 11 11
12 9 7 9 10 13 3 10 8 10 10 2 1 4 5 5 6 3 4 6 3 2 3 5 15 13 13 13 13 12 11 11 11 12 13 13 12 13 13 13 12 12 12 12 12 11 12 11 11
14 9 10 13 14 14 11 10 11 8 1 6 3 1 5 8 4 3 9 5 4 3 4 6 10 6 10 12 12 10 11 10 11 12 13 14 15 15 15 15 14 13 14 14 13 13 13 12 11
8 9 9 10 19 6 5 12 10 9 6 4 5 7 6 6 3 2 6 4 4 5 2 13 8 3 5 10 11 11 12 11 12 15 15 16 17 17 16 17 17 14 15 15 14 14 12 13 12
10 8 11 16 17 8 3 8 9 9 6 0 3 6 1 8 4 5 4 2 4 5 7 4 8 2 4 7 9 9 8 9 11 14 15 16 18 17 18 18 18 18 16 16 14 12 12 10 13
9 10 13 15 7 6 3 6 8 10 6 2 4 6 2 14 7 5 5 3 2 3 2 5 7 6 4 1 1 4 6 7 9 11 12 14 16 17 18 19 20 19 18 17 15 14 13 12 11
14 12 16 17 17 12 3 6 11 10 11 7 4 7 3 8 8 5 4 3 2 1 4 4 6 4 11 9 7 1 6 9 11 12 14 15 17 18 18 18 19 19 19 18 16 16 14 12 10
13 13 18 16 11 11 8 1 13 7 9 5 3 6 7 9 9 8 8 8 6 8 4 6 6 9 6 8 11 5 6 9 10 13 15 15 14 16 17 18 19 19 19 19 17 17 15 13 11
10 14 14 18 16 11 7 13 3 3 10 5 4 6 6 8 10 9 7 6 5 4 4 6 7 8 8 8 8 6 11 9 11 11 11 10 9 10 12 12 16 17 20 20 17 16 14 12 11
15 14 19 14 14 12 17 17 16 6 9 8 8 6 4 7 9 10 9 8 2 5 7 5 5 7 7 8 7 8 7 6 8 8 8 7 9 9 11 10 8 11 17 16 15 13 14 12 10
18 16 18 15 17 12 16 16 5 8 10 8 4 7 13 11 10 10 8 1 6 5 5 7 4 5 7 8 6 6 1 4 3 6 6 9 8 5 6 7 8 9 13 9 13 11 10 13 11
20 18 18 17 19 11 14 8 9 8 10 5 5 4 10 12 11 11 8 4 3 5 4 4 5 5 5 6 8 6 4 5 6 5 10 7 4 4 7 5 7 6 9 10 10 8 10 12 13
17 17 21 19 16 14 12 9 11 12 8 3 5 7 10 11 12 9 5 3 2 3 4 5 5 5 5 5 7 5 5 6 5 7 5 5 5 4 6 5 8 6 6 8 9 8 10 12 10
21 22 17 16 16 14 10 15 2 10 2 7 9 10 9 12 12 9 7 5 2 1 3 5 6 5 6 4 7 5 5 8 8 4 4 6 5 5 6 6 7 6 6 10 7 9 6 8 7
20 17 19 17 15 15 10 15 16 16 7 8 10 12 14 12 12 12 9 6 3 2 1 5 5 4 4 7 8 6 6 6 8 5 6 6 6 6 6 5 4 6 5 7 8 8 7 7 9
19 21 19 20 18 14 9 18 13 12 9 12 14 13 12 12 12 11 7 6 4 3 2 4 5 7 7 8 6 5 7 4 5 5 5 7 7 7 6 5 5 5 6 8 8 9 5 7 8
18 16 21 19 14 16 16 18 17 10 11 12 13 12 11 12 13 10 10 9 5 3 4 4 5 6 8 10 5 5 5 4 3 3 3 8 9 8 6 5 6 7 7 7 5 8 10 8 9
19 22 17 17 14 13 16 19 17 11 15 14 14 13 12 14 15 13 11 8 6 4 4 3 4 5 7 6 4 3 4 3 2 3 3 9 5 7 6 5 4 7 7 7 6 9 8 9 8
23 18 17 11 8 13 13 17 19 15 15 17 15 11 11 13 13 14 12 9 7 5 4 3 3 4 6 6 7 4 3 4 2 3 6 8 7 6 3 3 5 6 7 8 10 8 11 6 9
23 21 15 14 12 9 13 19 20 19 18 15 14 9 11 12 14 14 13 11 8 5 3 3 1 4 5 5 5 5 4 3 5 4 4 3 7 4 5 4 6 7 6 9 10 10 7 8 9
23 21 17 18 12 9 14 23 20 7 10 10 8 8 9 13 15 15 14 12 9 7 5 3 2 2 4 4 2 2 3 0 2 4 6 4 1 4 4 7 6 8 7 7 9 10 13 11 8
22 19 18 14 13 13 14 14 15 17 6 10 12 13 10 12 15 15 14 13 10 8 6 5 3 1 3 7 4 4 3 3 3 4 2 5 5 4 1 5 6 8 6 8 8 8 11 11 12
20 18 17 14 15 18 18 12 14 10 10 6 5 3 10 13 16 16 15 13 11 8 8 5 4 3 2 4 7 6 6 5 2 3 4 8 4 3 2 2 6 7 6 9 10 10 9 8 11
19 17 17 11 11 16 19 15 15 10 3 2 5 4 8 12 15 16 15 13 11 9 8 6 5 3 1 4 6 6 7 7 4 5 3 5 4 5 4 5 6 7 10 10 10 10 11 10 8
23 14 12 13 14 14 18 13 9 13 3 3 5 6 9 11 15 16 16 14 12 11 10 8 6 5 2 4 5 6 6 7 7 4 6 4 4 6 6 6 7 6 8 11 9 10 11 10 9
21 19 13 15 14 14 11 7 3 4 5 3 2 4 8 13 15 16 16 13 13 12 10 7 7 6 4 4 5 6 10 7 6 7 3 4 6 7 5 8 8 9 9 11 10 8 8 9 9
19 22 20 22 19 14 6 8 10 7 8 8 2 2 9 14 16 16 16 13 12 12 10 8 7 6 5 5 4 5 7 9 8 6 7 5 3 7 9 8 10 8 10 12 12 8 10 10 9
23 18 20 15 19 17 13 11 4 11 10 8 7 7 14 15 16 15 15 13 12 12 10 9 7 7 6 5 4 5 5 8 7 5 5 4 6 9 7 11 9 10 9 10 11 10 10 11 8
21 22 17 16 14 13 11 8 8 6 5 2 9 12 15 16 16 16 15 13 13 12 12 10 8 8 7 6 5 5 6 7 6 6 7 5 8 8 8 8 7 8 9 9 9 10 10 13 11
25 26 22 11 18 12 13 2 11 7 5 7 4 12 16 16 16 16 15 15 14 13 12 11 9 9 8 7 7 6 5 7 6 7 8 7 6 9 8 6 5 5 6 7 10 10 9 13 12
Wind_Direction
177 194 224 240 243 226 261 68 27 290 199 80 3 323 348 330 346 7 100 101 100 91 104 165 176 202 217 222 225 230 235 239 240 239 243 245 259 280 290 291 289 286 281 275 270 260 249 261 266
180 201 232 271 257 267 50 28 342 1 13 40 246 253 255 21 31 59 199 134 160 139 130 295 164 196 216 228 234 237 243 249 253 247 248 248 252 267 277 281 281 279 272 271 268 261 253 251 262
261 230 271 247 244 270 342 21 360 2 114 239 229 123 3 56 85 23 73 143 182 226 209 131 142 202 236 246 252 255 260 268 276 273 268 269 269 267 270 270 271 271 266 260 257 262 260 245 255
205 211 237 254 280 300 354 332 350 310 159 231 331 297 130 66 120 94 119 191 236 255 274 125 125 152 258 264 268 262 269 277 282 281 280 277 273 273 268 267 262 259 259 259 263 259 263 260 247
241 265 264 257 262 306 332 323 338 300 298 322 150 304 133 137 116 139 166 208 269 308 353 351 117 114 289 287 292 298 304 291 279 276 277 283 282 281 275 268 258 252 246 246 249 259 264 261 266
232 234 271 267 292 224 274 25 310 289 293 156 271 304 32 119 165 173 175 198 329 338 351 328 127 152 144 151 268 319 316 303 292 282 277 279 280 277 275 272 262 247 243 234 237 247 259 264 263
253 269 267 286 296 300 9 41 290 325 306 317 41 302 96 164 158 169 177 182 219 275 274 285 300 271 205 207 191 230 299 294 293 291 284 277 276 273 268 264 262 247 239 231 230 242 249 264 260
251 267 273 274 282 284 285 210 275 277 329 23 334 270 343 129 148 180 209 185 211 213 300 324 287 315 308 294 186 203 269 285 293 288 280 280 275 269 264 263 260 242 232 230 228 233 241 252 257
241 261 264 272 287 309 314 280 255 139 279 193 275 294 43 125 169 201 211 226 251 303 301 315 330 329 305 290 281 195 234 239 260 257 247 259 258 278 276 263 253 230 227 222 225 223 233 241 247
237 250 262 294 311 307 299 302 306 280 245 222 214 218 209 190 198 220 212 241 277 320 344 327 354 318 301 282 284 275 268 291 307 298 302 276 275 273 270 286 248 234 225 217 217 227 228 230 232
225 251 274 293 289 296 313 290 301 274 278 311 292 249 184 204 214 231 244 329 334 340 326 1 310 303 298 314 318 295 175 318 282 268 257 258 265 258 242 255 231 222 209 214 209 211 225 219 224
241 242 275 267 274 277 277 318 294 282 279 345 306 296 184 208 215 223 231 213 273 358 322 323 331 304 297 320 307 314 327 248 248 241 233 249 250 277 255 249 244 221 209 187 208 222 199 226 220
240 249 253 269 253 266 270 276 279 296 317 268 261 235 225 214 222 215 223 200 285 314 349 318 329 318 319 295 285 306 292 272 270 240 236 244 285 277 276 252 252 223 199 166 197 223 226 208 180
236 241 257 262 243 257 242 263 201 282 216 238 247 246 229 223 215 196 203 220 232 328 309 325 317 322 319 271 286 258 267 263 244 271 267 257 241 268 275 269 244 212 196 193 189 210 207 210 175
253 258 260 254 255 247 227 260 247 254 205 253 236 234 233 215 208 207 197 201 233 265 283 309 276 316 283 254 259 284 243 252 297 274 205 229 240 249 248 252 222 188 235 206 186 203 220 144 205
248 245 253 245 214 227 216 261 262 244 233 246 247 227 233 216 213 202 182 192 187 260 278 306 326 317 341 306 292 281 310 297 285 299 286 273 251 250 248 224 208 194 190 207 179 183 139 174 185
223 243 241 254 171 228 205 261 292 290 282 267 262 251 227 212 209 196 189 186 188 210 255 315 334 322 339 300 298 303 278 275 310 291 297 279 273 255 234 233 201 184 181 196 209 170 165 167 175
224 226 230 262 210 209 252 257 260 271 277 266 239 251 222 211 200 196 198 185 179 205 233 272 307 333 321 303 319 305 318 287 333 288 302 295 264 260 254 236 183 165 174 177 207 160 147 176 173
247 258 253 242 245 250 277 277 285 283 270 270 252 243 230 208 200 185 187 184 182 205 228 253 335 343 321 334 338 17 356 338 59 285 269 253 265 242 242 188 158 172 164 169 167 159 157 161 111
241 252 255 262 259 268 291 283 290 282 276 267 249 240 218 197 193 177 183 188 187 188 194 205 318 3 332 5 352 354 334 32 17 1 9 12 210 192 190 205 182 160 165 163 162 157 148 138 140
228 243 244 261 271 241 270 266 256 254 269 244 234 255 213 193 190 180 183 187 183 190 178 152 91 23 19 352 71 32 333 320 20 29 25 38 94 176 194 178 173 174 159 171 165 165 153 143 143
228 227 247 269 276 267 274 283 294 272 263 256 232 198 207 179 182 180 183 184 186 177 165 153 122 17 82 6 15 10 18 20 51 40 35 18 49 83 284 214 173 168 168 175 167 168 163 154 149
232 235 239 227 252 270 263 262 272 266 218 249 248 257 152 168 178 178 182 177 176 166 165 168 143 107 54 40 6 28 36 21 31 75 33 59 68 90 133 147 185 174 162 165 162 162 169 160 146
225 226 255 266 260 256 256 253 265 271 122 306 303 176 155 169 170 171 174 170 168 176 163 168 150 123 263 18 41 21 60 53 29 47 34 76 45 48 69 113 134 149 153 152 150 152 157 146 151
220 208 227 227 231 248 246 237 288 300 315 334 331 323 143 161 168 168 172 171 167 173 166 171 166 138 158 66 49 24 16 81 67 73 76 56 69 41 43 101 113 124 133 134 139 149 144 147 144
204 212 226 219 233 246 138 225 261 216 61 264 291 352 135 167 165 169 172 171 173 171 172 186 168 156 163 88 61 45 35 65 77 91 120 70 55 54 56 95 92 98 128 121 127 128 135 141 133
186 214 225 255 285 289 213 208 196 190 211 197 160 171 153 164 163 171 169 172 174 171 173 175 161 152 161 121 99 72 70 77 93 96 60 65 81 86 69 103 97 87 109 123 126 124 124 121 116
221 199 217 228 247 262 243 234 243 166 210 117 149 164 159 163 165 171 170 172 175 174 168 178 174 166 163 138 136 105 93 109 105 94 109 91 78 60 77 84 104 90 100 121 121 117 121 118 110
202 224 203 246 225 238 249 261 116 148 155 331 146 158 169 170 171 172 172 171 177 174 172 179 186 160 164 153 133 134 105 101 102 92 75 64 108 98 81 89 105 93 101 112 120 111 124 121 115
214 210 206 217 221 251 276 242 111 159 204 181 193 154 172 178 174 173 173 172 176 178 169 176 183 172 172 161 146 136 129 112 101 95 97 102 87 115 107 92 82 100 102 112 118 128 142 135 131